CW6641 Weather Reports


Display with metric or nautical units.
time (UTC)temp
F
wind
direction
speed
MPH
gust
MPH
rain 1hr
in
rain 24hr
in
rain mn
in
humidity
%
barometer
mb
20260906021648 84 0.0 0.0 0.00 0.04 0.04 71 1011.5
20260906021146 84 0.0 0.0 0.00 0.04 0.04 71 1011.4
20260906020641 84 0.0 0.0 0.00 0.04 0.04 72 1011.7
20260906020136 84 0.0 0.0 0.00 0.04 0.04 72 1011.5
20260906015630 84 0.0 0.0 0.00 0.04 0.04 71 1011.5
20260906015128 84 0.0 0.0 0.00 0.04 0.04 72 1011.5
20260906014623 84 0.0 0.0 0.00 0.04 0.04 71 1011.4
20260906014119 85 0.0 0.0 0.00 0.04 0.04 71 1011.6
20260906013614 85 0.0 0.0 0.00 0.04 0.04 71 1011.5
20260906013110 85 0.0 0.0 0.00 0.04 0.04 70 1011.5
20260906012605 85 0.0 0.0 0.00 0.04 0.04 71 1011.5
20260906012059 85 0.0 0.0 0.00 0.04 0.04 71 1011.5
20260906011555 86 0.0 0.0 0.00 0.04 0.04 72 1011.4
20260906011055 86 0.0 0.0 0.00 0.04 0.04 70 1011.3
20260906010550 86 0.0 0.0 0.00 0.04 0.04 70 1011.2
20260906010047 86 0.0 0.0 0.00 0.04 0.04 69 1011.3
20260906005546 86 0.0 0.0 0.00 0.04 0.04 67 1011.2
20260906005045 87 0.0 0.0 0.00 0.04 0.04 67 1011.2
20260906004545 87 0.0 0.0 0.00 0.04 0.04 66 1011.2
20260906004039 87 0.0 0.0 0.00 0.04 0.04 67 1011.1
20260906003534 87 0.0 0.0 0.00 0.04 0.04 65 1010.9
20260906003031 87 0.0 0.0 0.00 0.04 0.04 65 1010.8
20260906002525 88 0.0 0.0 0.00 0.04 0.04 63 1010.9
20260906002020 88 0.0 0.0 0.00 0.04 0.04 64 1010.8
20260906001515 89 0.0 0.0 0.00 0.04 0.04 62 1011.1
20260906001004 90 0.0 0.0 0.00 0.04 0.04 62 1011.0
20260906000500 90 0.0 0.0 0.00 0.04 0.04 62 1011.2
20260905235959 90 0.0 0.0 0.00 0.04 0.04 60 1011.1
20260905235454 90 0.0 0.0 0.00 0.04 0.04 57 1011.4
20260905234949 90 0.0 0.0 0.00 0.04 0.04 57 1011.1
20260905234444 90 0.0 0.0 0.00 0.04 0.04 57 1011.4
20260905233938 90 0.0 0.0 0.00 0.04 0.04 57 1011.4
20260905233434 90 0.0 0.0 0.00 0.04 0.04 58 1011.4
20260905232933 90 0.0 0.0 0.00 0.04 0.04 59 1011.3
20260905232429 90 0.0 0.0 0.00 0.04 0.04 59 1011.3
20260905231924 89 0.0 0.0 0.00 0.04 0.04 60 1011.3
20260905231420 90 0.0 0.0 0.00 0.04 0.04 63 1011.0
20260905230917 90 0.0 0.0 0.00 0.04 0.04 64 1011.1
20260905230415 89 0.0 0.0 0.00 0.04 0.04 61 1011.0
20260905225914 89 0.0 0.0 0.00 0.04 0.04 65 1010.8
20260905225409 89 0.0 0.0 0.00 0.04 0.04 61 1011.3
20260905224904 88 0.0 0.0 0.00 0.04 0.04 62 1010.7
20260905224400 87 0.0 0.0 0.00 0.04 0.04 63 1011.0
20260905223854 86 0.0 0.0 0.00 0.04 0.04 65 1010.9
20260905223351 86 0.0 0.0 0.00 0.04 0.04 66 1010.9
20260905222846 86 0.0 0.0 0.00 0.04 0.04 66 1010.7
20260905222345 87 0.0 0.0 0.00 0.04 0.04 65 1010.8
20260905221841 87 0.0 0.0 0.00 0.04 0.04 60 1011.0
20260905221337 89 0.0 0.0 0.00 0.04 0.04 58 1010.9
20260905220833 90 0.0 0.0 0.00 0.04 0.04 56 1010.8
20260905220329 92 0.0 0.0 0.19 0.04 0.04 55 1010.8
20260905215828 95 0.0 0.0 0.24 0.04 0.04 49 1010.7
20260905215324 97 0.0 0.0 0.05 0.01 0.01 44 1010.9
20260905214821 98 0.0 0.0 0.00 0.00 0.00 41 1010.8
20260905214315 98 0.0 0.0 0.00 0.00 0.00 39 1010.6
20260905213810 98 0.0 0.0 0.00 0.00 0.00 40 1010.5
20260905213306 99 0.0 0.0 0.00 0.00 0.00 41 1010.7
20260905212801 99 0.0 0.0 0.00 0.00 0.00 41 1010.6
20260905212301 99 0.0 0.0 0.00 0.00 0.00 39 1010.6
20260905211755 99 0.0 0.0 0.00 0.00 0.00 40 1010.7
20260905211250 99 0.0 0.0 0.00 0.00 0.00 39 1010.6
20260905210747 99 0.0 0.0 0.00 0.00 0.00 40 1010.7
20260905210247 99 0.0 0.0 0.00 0.00 0.00 40 1010.8
20260905205745 99 0.0 0.0 0.00 0.00 0.00 39 1010.8
20260905205240 99 0.0 0.0 0.00 0.00 0.00 39 1010.9
20260905204740 99 0.0 0.0 0.00 0.00 0.00 38 1011.2
20260905204236 99 0.0 0.0 0.00 0.00 0.00 39 1011.0
20260905203735 99 0.0 0.0 0.00 0.00 0.00 36 1011.3
20260905203231 100 0.0 0.0 0.00 0.00 0.00 38 1011.3
20260905202726 100 0.0 0.0 0.00 0.00 0.00 40 1011.4
20260905202221 100 0.0 0.0 0.00 0.00 0.00 38 1011.2
20260905201716 100 0.0 0.0 0.00 0.00 0.00 39 1011.5
20260905201211 100 0.0 0.0 0.00 0.00 0.00 38 1011.3
20260905200706 99 0.0 0.0 0.00 0.00 0.00 38 1011.4
20260905200202 99 0.0 0.0 0.00 0.00 0.00 41 1011.6
20260905195700 98 0.0 0.0 0.00 0.00 0.00 40 1011.7
20260905195154 98 0.0 0.0 0.00 0.00 0.00 39 1011.6
20260905194650 98 0.0 0.0 0.00 0.00 0.00 43 1011.6
20260905194144 98 0.0 0.0 0.00 0.00 0.00 44 1011.9
20260905193638 99 0.0 0.0 0.00 0.00 0.00 42 1012.3
20260905193133 99 0.0 0.0 0.00 0.00 0.00 41 1012.2
20260905192628 99 0.0 0.0 0.00 0.00 0.00 42 1012.0
20260905192125 99 0.0 0.0 0.00 0.00 0.00 42 1012.0
20260905191624 98 0.0 0.0 0.00 0.00 0.00 43 1012.0
20260905191122 98 0.0 0.0 0.00 0.00 0.00 42 1012.3
20260905190621 98 0.0 0.0 0.00 0.00 0.00 41 1012.3
20260905190121 98 0.0 0.0 0.00 0.00 0.00 45 1012.2
20260905185620 99 0.0 0.0 0.00 0.00 0.00 44 1012.5
20260905185114 98 0.0 0.0 0.00 0.00 0.00 45 1012.4
20260905184609 98 0.0 0.0 0.00 0.00 0.00 46 1012.7
20260905184108 97 0.0 0.0 0.00 0.00 0.00 46 1012.3
20260905183607 97 0.0 0.0 0.00 0.00 0.00 45 1012.6
20260905183103 97 0.0 0.0 0.00 0.00 0.00 46 1012.6
20260905182602 96 0.0 0.0 0.00 0.00 0.00 45 1012.7
20260905182056 96 0.0 0.0 0.00 0.00 0.00 46 1012.9
20260905181551 96 0.0 0.0 0.00 0.00 0.00 47 1012.8
20260905181050 96 0.0 0.0 0.00 0.00 0.00 46 1012.7
20260905180545 96 0.0 0.0 0.00 0.00 0.00 47 1012.9
20260905180041 96 0.0 0.0 0.00 0.00 0.00 49 1013.1
20260905175539 95 0.0 0.0 0.00 0.00 0.00 50 1013.1
20260905175035 96 0.0 0.0 0.00 0.00 0.00 49 1013.0
20260905174531 95 0.0 0.0 0.00 0.00 0.00 51 1013.0
20260905174026 95 0.0 0.0 0.00 0.00 0.00 49 1013.3
20260905173523 95 0.0 0.0 0.00 0.00 0.00 50 1013.2
20260905173018 96 0.0 0.0 0.00 0.00 0.00 51 1013.5
20260905172516 96 0.0 0.0 0.00 0.00 0.00 50 1013.6
20260905172012 96 0.0 0.0 0.00 0.00 0.00 51 1013.6
20260905171508 95 0.0 0.0 0.00 0.00 0.00 50 1013.5
20260905171003 95 0.0 0.0 0.00 0.00 0.00 52 1013.5
20260905170500 95 0.0 0.0 0.00 0.00 0.00 52 1013.5
20260905165954 94 0.0 0.0 0.00 0.00 0.00 54 1013.8
20260905165449 94 0.0 0.0 0.00 0.00 0.00 54 1013.8
20260905164943 93 0.0 0.0 0.00 0.00 0.00 56 1014.0
20260905164438 93 0.0 0.0 0.00 0.00 0.00 54 1013.9
20260905163933 93 0.0 0.0 0.00 0.00 0.00 57 1014.1
20260905163429 92 0.0 0.0 0.00 0.00 0.00 58 1014.3
20260905162925 92 0.0 0.0 0.00 0.00 0.00 58 1014.3
20260905162420 92 0.0 0.0 0.00 0.00 0.00 59 1014.2
20260905161915 91 0.0 0.0 0.00 0.00 0.00 59 1014.4
20260905161414 91 0.0 0.0 0.00 0.00 0.00 60 1014.4
20260905160912 91 0.0 0.0 0.00 0.00 0.00 61 1014.8
20260905160406 91 0.0 0.0 0.00 0.00 0.00 60 1014.6
20260905155900 91 0.0 0.0 0.00 0.00 0.00 61 1014.6
20260905155355 91 0.0 0.0 0.00 0.00 0.00 61 1014.6
20260905154854 90 0.0 0.0 0.00 0.00 0.00 62 1014.6
20260905154350 90 0.0 0.0 0.00 0.00 0.00 63 1014.4
20260905153845 90 0.0 0.0 0.00 0.00 0.00 62 1014.6
20260905153341 89 0.0 0.0 0.00 0.00 0.00 63 1014.5
20260905152841 89 0.0 0.0 0.00 0.00 0.00 64 1014.6
20260905152340 89 0.0 0.0 0.00 0.00 0.00 64 1014.6
20260905151835 88 0.0 0.0 0.00 0.00 0.00 66 1014.6
20260905151331 88 0.0 0.0 0.00 0.00 0.00 65 1014.4
20260905150825 88 0.0 0.0 0.00 0.00 0.00 66 1014.6
20260905150319 87 0.0 0.0 0.00 0.00 0.00 67 1014.5
20260905145816 87 0.0 0.0 0.00 0.00 0.00 66 1014.4
20260905145311 87 0.0 0.0 0.00 0.00 0.00 70 1014.5
20260905144809 86 0.0 0.0 0.00 0.00 0.00 70 1014.5
20260905144306 86 0.0 0.0 0.00 0.00 0.00 69 1014.5
20260905143804 86 0.0 0.0 0.00 0.00 0.00 71 1014.4
20260905143259 86 0.0 0.0 0.00 0.00 0.00 72 1014.5
20260905142757 85 0.0 0.0 0.00 0.00 0.00 73 1014.7
20260905142252 85 0.0 0.0 0.00 0.00 0.00 73 1014.7
20260905141748 85 0.0 0.0 0.00 0.00 0.00 76 1014.7
20260905141243 84 0.0 0.0 0.00 0.00 0.00 75 1014.7
20260905140739 84 0.0 0.0 0.00 0.00 0.00 76 1015.0
20260905140233 83 0.0 0.0 0.00 0.00 0.00 78 1014.8
20260905135732 83 0.0 0.0 0.00 0.00 0.00 78 1014.7
20260905135228 82 0.0 0.0 0.00 0.00 0.00 80 1014.6
20260905134727 82 0.0 0.0 0.00 0.00 0.00 80 1014.6
20260905134227 82 0.0 0.0 0.00 0.00 0.00 81 1014.9
20260905133722 81 0.0 0.0 0.00 0.00 0.00 81 1014.8
20260905133217 80 0.0 0.0 0.00 0.00 0.00 83 1014.8
20260905132716 80 0.0 0.0 0.00 0.00 0.00 83 1014.9
20260905132212 80 0.0 0.0 0.00 0.00 0.00 84 1014.7
20260905131706 79 0.0 0.0 0.00 0.00 0.00 84 1015.0
20260905131202 79 0.0 0.0 0.00 0.00 0.00 84 1015.0
20260905130656 79 0.0 0.0 0.00 0.00 0.00 85 1015.0
20260905130155 79 0.0 0.0 0.00 0.00 0.00 85 1015.1
20260905125650 78 0.0 0.0 0.00 0.00 0.00 85 1015.0
20260905125146 78 0.0 0.0 0.00 0.00 0.00 86 1015.0
20260905124642 78 0.0 0.0 0.00 0.00 0.00 85 1015.0
20260905124138 77 0.0 0.0 0.00 0.00 0.00 85 1014.7
20260905123633 77 0.0 0.0 0.00 0.00 0.00 85 1014.8
20260905123130 77 0.0 0.0 0.00 0.00 0.00 85 1014.7
20260905122629 77 0.0 0.0 0.00 0.00 0.00 85 1014.8
20260905122125 77 0.0 0.0 0.00 0.00 0.00 85 1014.7
20260905121619 77 0.0 0.0 0.00 0.00 0.00 85 1014.9
20260905121114 77 0.0 0.0 0.00 0.00 0.00 84 1014.9
20260905120608 77 0.0 0.0 0.00 0.00 0.00 84 1014.6
20260905120103 77 0.0 0.0 0.00 0.00 0.00 84 1014.8
20260905115602 77 0.0 0.0 0.00 0.00 0.00 84 1014.7
20260905115057 77 0.0 0.0 0.00 0.00 0.00 85 1014.5
20260905114556 77 0.0 0.0 0.00 0.00 0.00 84 1014.7
20260905114055 77 0.0 0.0 0.00 0.00 0.00 84 1014.3
20260905113550 77 0.0 0.0 0.00 0.00 0.00 83 1014.3
20260905113045 77 0.0 0.0 0.00 0.00 0.00 83 1014.3
20260905112541 77 0.0 0.0 0.00 0.00 0.00 83 1014.2
20260905112036 77 0.0 0.0 0.00 0.00 0.00 83 1014.0
20260905111531 77 0.0 0.0 0.00 0.00 0.00 83 1014.0
20260905111030 77 0.0 0.0 0.00 0.00 0.00 83 1014.1
20260905110529 77 0.0 0.0 0.00 0.00 0.00 83 1013.9
20260905110024 77 0.0 0.0 0.00 0.00 0.00 83 1014.2
20260905105519 77 0.0 0.0 0.00 0.00 0.00 83 1014.0
20260905105013 77 0.0 0.0 0.00 0.00 0.00 83 1013.9
20260905104509 78 0.0 0.0 0.00 0.00 0.00 83 1013.7
20260905104008 78 0.0 0.0 0.00 0.00 0.00 83 1013.7
20260905103504 78 0.0 0.0 0.00 0.00 0.00 83 1013.8
20260905103000 78 0.0 0.0 0.00 0.00 0.00 83 1013.5
20260905102455 78 0.0 0.0 0.00 0.00 0.00 83 1014.0
20260905101951 78 0.0 0.0 0.00 0.00 0.00 83 1013.7
20260905101450 78 0.0 0.0 0.00 0.00 0.00 82 1013.8
20260905100949 78 0.0 0.0 0.00 0.00 0.00 82 1013.8
20260905100445 78 0.0 0.0 0.00 0.00 0.00 82 1013.8
20260905095943 78 0.0 0.0 0.00 0.00 0.00 82 1013.9
20260905095438 78 0.0 0.0 0.00 0.00 0.00 82 1013.8
20260905094933 78 0.0 0.0 0.00 0.00 0.00 82 1013.9
20260905094429 78 0.0 0.0 0.00 0.00 0.00 82 1013.6
20260905093927 78 0.0 0.0 0.00 0.00 0.00 82 1013.7
20260905093423 78 0.0 0.0 0.00 0.00 0.00 82 1013.7
20260905092919 78 0.0 0.0 0.00 0.00 0.00 82 1013.4
20260905092414 78 0.0 0.0 0.00 0.00 0.00 82 1013.3
20260905091908 78 0.0 0.0 0.00 0.00 0.00 81 1013.6
20260905091403 78 0.0 0.0 0.00 0.00 0.00 81 1013.5
20260905090902 78 0.0 0.0 0.00 0.00 0.00 81 1013.4
20260905090358 78 0.0 0.0 0.00 0.00 0.00 81 1013.3
20260905085856 78 0.0 0.0 0.00 0.00 0.00 81 1013.3
20260905085351 78 0.0 0.0 0.00 0.00 0.00 81 1013.3
20260905084847 78 0.0 0.0 0.00 0.00 0.00 81 1013.4
20260905084340 79 0.0 0.0 0.00 0.00 0.00 81 1013.3
20260905083835 79 0.0 0.0 0.00 0.00 0.00 81 1013.4
20260905083331 79 0.0 0.0 0.00 0.00 0.00 81 1013.3
20260905082827 79 0.0 0.0 0.00 0.00 0.00 81 1013.3
20260905082322 79 0.0 0.0 0.00 0.00 0.00 81 1013.3
20260905081817 79 0.0 0.0 0.00 0.00 0.00 81 1013.6
20260905081312 79 0.0 0.0 0.00 0.00 0.00 80 1013.6
20260905080811 79 0.0 0.0 0.00 0.00 0.00 80 1013.6
20260905080306 79 0.0 0.0 0.00 0.00 0.00 80 1013.7
20260905075805 79 0.0 0.0 0.00 0.00 0.00 79 1013.7
20260905075306 79 0.0 0.0 0.00 0.00 0.00 79 1013.6
20260905074803 79 0.0 0.0 0.00 0.00 0.00 79 1013.6
20260905074300 79 0.0 0.0 0.00 0.00 0.00 79 1013.5
20260905073754 79 0.0 0.0 0.00 0.00 0.00 79 1013.8
20260905073249 80 0.0 0.0 0.00 0.00 0.00 79 1013.7
20260905072744 80 0.0 0.0 0.00 0.00 0.00 79 1013.9
20260905072239 80 0.0 0.0 0.00 0.00 0.00 79 1013.9
20260905071736 80 0.0 0.0 0.00 0.00 0.00 79 1013.8
20260905071231 80 0.0 0.0 0.00 0.00 0.00 79 1013.7
20260905070726 80 0.0 0.0 0.00 0.00 0.00 78 1013.9
20260905070223 80 0.0 0.0 0.00 0.00 0.00 78 1013.8
20260905065720 80 0.0 0.0 0.00 0.00 0.00 78 1013.7
20260905065215 80 0.0 0.0 0.00 0.00 0.00 78 1013.6
20260905064711 81 0.0 0.0 0.00 0.00 0.00 78 1013.7
20260905064207 81 0.0 0.0 0.00 0.00 0.00 77 1014.0
20260905063704 81 0.0 0.0 0.00 0.00 0.00 77 1013.8
20260905063201 81 0.0 0.0 0.00 0.00 0.00 77 1013.9
20260905062657 81 0.0 0.0 0.00 0.00 0.00 77 1013.9
20260905062156 81 0.0 0.0 0.00 0.00 0.00 77 1014.0
20260905061655 81 0.0 0.0 0.00 0.00 0.00 76 1014.1
20260905061150 81 0.0 0.0 0.00 0.00 0.00 77 1013.9
20260905060646 81 0.0 0.0 0.00 0.00 0.00 77 1014.0
20260905060142 81 0.0 0.0 0.00 0.00 0.00 77 1014.1
20260905055641 81 0.0 0.0 0.00 0.00 0.00 77 1013.9
20260905055136 81 0.0 0.0 0.00 0.00 0.00 77 1013.9
20260905054632 81 0.0 0.0 0.00 0.00 0.00 77 1013.9
20260905054127 81 0.0 0.0 0.00 0.00 0.00 77 1014.1
20260905053627 81 0.0 0.0 0.00 0.00 0.00 77 1014.0
20260905053122 82 0.0 0.0 0.00 0.00 0.00 78 1014.2
20260905052621 82 0.0 0.0 0.00 0.00 0.00 78 1014.4
20260905052115 82 0.0 0.0 0.00 0.00 0.00 77 1014.0
20260905051611 82 0.0 0.0 0.00 0.00 0.00 77 1014.4
20260905051102 82 0.0 0.0 0.00 0.00 0.00 77 1014.2
20260905050557 82 0.0 0.0 0.00 0.00 0.00 78 1014.1
20260905050055 82 0.0 0.0 0.00 0.00 0.00 78 1014.3
20260905045554 82 0.0 0.0 0.00 0.00 0.00 77 1014.1
20260905045050 82 0.0 0.0 0.00 0.00 0.00 76 1014.3
20260905044550 82 0.0 0.0 0.00 0.00 0.00 76 1014.0
20260905044044 82 0.0 0.0 0.00 0.00 0.00 76 1014.1
20260905043544 82 0.0 0.0 0.00 0.00 0.00 76 1014.0
20260905043039 83 0.0 0.0 0.00 0.00 0.00 76 1014.0
20260905042538 83 0.0 0.0 0.00 0.00 0.00 75 1013.9
20260905042033 83 0.0 0.0 0.00 0.00 0.00 75 1014.0
20260905041528 83 0.0 0.0 0.00 0.00 0.00 74 1014.2
20260905041024 83 0.0 0.0 0.00 0.00 0.00 74 1014.1
20260905040523 83 0.0 0.0 0.00 0.00 0.00 74 1014.4
20260905040022 84 0.0 0.0 0.00 0.00 0.00 74 1014.2
20260905035517 84 0.0 0.0 0.00 0.00 0.00 74 1014.1
20260905035014 84 0.0 0.0 0.00 0.00 0.00 73 1014.2
20260905034509 84 0.0 0.0 0.00 0.00 0.00 73 1014.1
20260905034008 84 0.0 0.0 0.00 0.00 0.00 73 1014.0
20260905033503 84 0.0 0.0 0.00 0.00 0.00 73 1014.3
20260905032959 84 0.0 0.0 0.00 0.00 0.00 73 1014.3
20260905032454 84 0.0 0.0 0.00 0.00 0.00 73 1014.3
20260905031948 84 0.0 0.0 0.00 0.00 0.00 72 1014.3
20260905031445 84 0.0 0.0 0.00 0.00 0.00 73 1014.4
20260905030939 85 0.0 0.0 0.00 0.00 0.00 72 1014.5
20260905030435 85 0.0 0.0 0.00 0.00 0.00 72 1014.4
20260905025933 85 0.0 0.0 0.00 0.00 0.00 72 1014.3
20260905025429 85 0.0 0.0 0.00 0.00 0.00 72 1014.1
20260905024925 85 0.0 0.0 0.00 0.00 0.00 72 1014.4
20260905024420 85 0.0 0.0 0.00 0.00 0.00 71 1014.2
20260905023915 85 0.0 0.0 0.00 0.00 0.00 71 1014.4
20260905023411 85 0.0 0.0 0.00 0.00 0.00 71 1014.4
20260905022909 86 0.0 0.0 0.00 0.00 0.00 70 1014.3
20260905022405 86 0.0 0.0 0.00 0.00 0.00 70 1014.1